Regional Weather Roundup
Issued by NWS

Home | Current Version | Previous Version | Text Only | Print | Product List | Glossary On
Versions: 1 2 3 4 5 6 7 8 9 10 11 12 13 14 15 16 17 18 19 20 21 22 23 24 25 26 27 28 29 30 31 32 33 34 35 36 37 38 39 40 41 42 43 44 45 46 47 48 49 50
444
ASUS43 KDTX 242110
RWRMI
MICHIGAN HOURLY REGIONAL WEATHER ROUNDUP
NATIONAL WEATHER SERVICE DETROIT/PONTIAC MI
400 PM EST FRI NOV 24 2017

NOTE: "FAIR" INDICATES FEW OR NO CLOUDS BELOW 12,000 FEET WITH NO
SIGNIFICANT WEATHER AND/OR OBSTRUCTION TO VISIBILITY.

MIZ047>049-052>055-059>063-066>070-074>076-081>083-242200-
SOUTHEAST LOWER MICHIGAN

CITY           SKY/WX    TMP DP  RH WIND       PRES   REMARKS
ADRIAN         CLEAR     52  33  48 SW17G25   29.67F
ALMA           CLEAR     56  34  43 S13G24    29.52F
ANN ARBOR      CLEAR     51  34  52 S13G22    29.64F
BAD AXE        PTCLDY    53  33  47 S18       29.52F
CARO           CLEAR     56  33  42 S13       29.52F
DETROIT CITY   CLEAR     51  31  46 S17       29.65F
DETROIT        PTCLDY    53  33  46 S20       29.66F
FLINT          CLEAR     54  31  41 S14       29.58F
GROSSE ILE     CLEAR     48  36  61 S14       29.66F
HILLSDALE      SUNNY     52  32  46 S12G20    29.62F
HOWELL         CLEAR     53  32  44 S16G22    29.60F

CITY           SKY/WX    TMP DP  RH WIND       PRES   REMARKS
JACKSON        CLEAR     55  32  41 S14       29.61F
LAMBERTVILLE   CLEAR     55  32  41 SW7G20    29.68F
LANSING        CLEAR     56  34  43 S15       29.58F
LAPEER         FAIR      53  31  43 S15G24    29.58F
MASON          CLEAR     56  33  40 S9        29.59F
MONROE         CLEAR     54  31  42 S14G23    29.67S
MT. CLEMENS    PTCLDY    51  33  50 S15       29.62F
PONTIAC        PTCLDY    51  32  48 S15       29.62F
PORT HOPE        N/A     54  33  45 S10G22    29.49F
PORT HURON     CLEAR     48  30  49 S21G28    29.62F
TRI CITIES     PTCLDY    57  35  43 S15G26    29.52F
MIDLAND        FAIR      56  35  44 S13G22    29.50F
TROY           CLEAR     55  31  40 S17       29.65F
SAGINAW HB     CLEAR     55  32  41 S22G28    29.52F
$$
MIZ043>046-050>051-056>058-064>065-071>073-077>080-242200-
SOUTHWEST LOWER MICHIGAN

CITY           SKY/WX    TMP DP  RH WIND       PRES   REMARKS
BATTLE CREEK   SUNNY     54  34  46 S21G28    29.60S
BENTON HARBOR  SUNNY     59  33  37 S18G29    29.53F
BIG RAPIDS     CLEAR     59  32  36 SW10G17   29.44F
COLDWATER      SUNNY     55  30  39 S10G17    29.62F
FREMONT        FAIR      56  34  43 SW16G24   29.47F
HOLLAND        SUNNY     58  36  43 S15G24    29.50F
GRAND RAPIDS   MOSUNNY   58  36  43 S15G23    29.52F
IONIA          FAIR      56  33  40 S17G24    29.53F
KALAMAZOO      SUNNY     55  32  41 S15G23    29.59F
LUDINGTON      PTCLDY    53  36  53 S15G25    29.38F
MARSHALL       SUNNY     55  32  42 S7G18     29.60S
MOUNT PLEASANT PTCLDY    59  32  35 S13       29.48F
MUSKEGON       MOSUNNY   56  36  47 S23G39    29.47F
SOUTH HAVEN    SUNNY     59  33  36 S15       29.52F
$$
MIZ016>042-242200-
NORTHERN LOWER MICHIGAN

CITY           SKY/WX    TMP DP  RH WIND       PRES   REMARKS
ALPENA         PTCLDY    53  35  50 S15       29.37F
BEAVER ISLAND  CLOUDY    53  40  61 SW9G22    29.29R
BELLAIRE       CLEAR     62  41  47 S17G33    29.31F
CADILLAC       CLEAR     57  36  45 S18G24    29.39F
CHARLEVOIX     PTCLDY    60  39  44 S21G40    29.29F
FRANKFORT      PTCLDY    59  37  44 S18G32    29.31F
GAYLORD        CLEAR     57  36  45 SW23G36   29.34F
GRAYLING       CLEAR     56  34  42 S8G22     29.38F
HARBOR SPRINGS PTCLDY    60  39  46 SW15G22   29.28F
HOUGHTON LAKE  PTCLDY    54  33  45 S13       29.42F
MANISTEE       PTCLDY    56  38  50 S13G20    29.35F
OSCODA         PTCLDY    51  32  48 S18       29.44F
ROGERS CITY    PTCLDY    58  38  46 SW13G21   29.32S
TRAVERSE CITY  MOCLDY    61  37  41 SW15G26   29.30F
$$
MIZ007>008-015-242200-
EASTERN UPPER MICHIGAN

CITY           SKY/WX    TMP DP  RH WIND       PRES   REMARKS
KINROSS        LGT RAIN  51  41  68 SW10G18   29.29R
MACKINAC ISLAN CLOUDY    52  40  62 W8G16     29.29R
NEWBERRY       MIX PCPN  46  43  90 SW16G23   29.27R
S. S. MARIE    LGT RAIN  47  41  80 VRB3      29.28F
MUNISING         N/A     50  38  63 S6        29.24R
$$
MIZ004>006-011>014-085-242200-
CENTRAL UPPER MICHIGAN

CITY           SKY/WX    TMP DP  RH WIND       PRES   REMARKS
MANISTIQUE     CLOUDY    45  39  81 SW13G21   29.27F
ESCANABA       CLOUDY    51  37  58 S9        29.25F
MENOMINEE      CLOUDY    56  38  50 SW3       29.28R
SAWYER-GWINN   PTCLDY    50  37  62 CALM      29.23F
$$
MIZ001>003-009>011-084-242200-
WESTERN UPPER MICHIGAN

CITY           SKY/WX    TMP DP  RH WIND       PRES   REMARKS
IRON MOUNTAIN  LGT RAIN  55  36  48 W12       29.25R
HOUGHTON       LGT RAIN  42  39  89 W22       29.25R FOG
COPPER HARBOR    N/A     44  41  89 NW12G21   29.21R
IRONWOOD       RAIN      43  41  93 W9        29.31R
$$

ABBREVIATIONS USED IN REMARKS
   TC - TEMPERATURE IN CELSIUS
  WCI - WIND CHILL INDEX
   HX - HEAT INDEX
  VSB - VISIBILITY





USA.gov is the U.S. government's official web portal to all federal, state and local government web resources and services.